Back to catalog

ARIANE 44L R/B

AliveHEO
NORAD 20316·ROCKET BODY·🇫🇷 France

Launched Oct 27, 1989 from Guiana Space Centre

Loading…

Next Passes (next 24 hours)

TLE

FreshSource: Space-Track

Epoch: Sep 14, 2026, 09:38 UTC

1 20316U 89087B   26257.40195230  .00495125 -83544-6  16944-2 0  9993
2 20316   7.2450  45.5122 4577896 244.8619  61.4597  6.55930264390117

Track ARIANE 44L R/B in real time with AllMySat

Download on the App Store